TELSTAR 12V

Last updated on Sun Jun 21 2026 00:03:06 GMT+0000 (Coordinated Universal Time)

1 41036U 15068A 26171.38903713 -.00000124 00000+0 00000+0 0 9991 2 41036 0.0122 50.6261 0002275 32.0364 310.9897 1.00271200 38657
UTC large
Height (km)
Speed (km/s)
/
Latitude / Longitude
Inclination (degrees)
Orbital Period (minutes)
Azimuth
Elevation
Range (km)
Doppler Factor

Next 0 passes for location: London (51.5072 / 0.1276)

No passes found over London.
TELSTAR 12V